Regional Weather Roundup
Issued by NWS

Home | Current Version | Previous Version | Graphics & Text | Print | Product List | Glossary On
Versions: 1 2 3 4 5 6 7 8 9 10 11 12 13 14 15 16 17 18 19 20 21 22 23 24 25 26 27 28 29 30 31 32 33 34 35 36 37 38 39 40 41 42 43 44 45 46 47 48 49 50
000
ASUS43 KDMX 250603
RWRIA

WEATHER ROUNDUP FOR IOWA
NATIONAL WEATHER SERVICE DES MOINES IA
100 AM CDT SUN SEP 25 2016

NOTE: "FAIR" INDICATES FEW OR NO CLOUDS BELOW 12,000 FEET WITH NO
SIGNIFICANT WEATHER AND/OR OBSTRUCTIONS TO VISIBILITY.

* - THESE STATIONS ARE NOT NWS STATIONS...THUS NOT UNDER NWS
QUALITY CONTROL.  THEY ALSO DO NOT REPORT WEATHER SUCH
AS PRECIPITATION OR FOG.

IAZ001>003-012>014-020>022-031>034-043>046-250700-
   NORTHWEST IOWA

CITY           SKY/WX    TMP DP  RH WIND       PRES   REMARKS
CARROLL *      CLOUDY    66  66 100 SE8       29.97S
CHEROKEE *     CLOUDY    69  68  97 S13       29.95S
DENISON *      CLOUDY    68  66  94 S9        29.95F
LE MARS *      DRIZZLE   68  64  88 SE7       29.95S
ORANGE CITY *  LGT RAIN  68  66  94 S6        29.94F
SHELDON *      HVY RAIN  68  68 100 S12G17    29.93S VSB 1
SIOUX CITY     LGT RAIN  70  69  97 E8        29.93F
6HR MIN TEMP:  70; 6HR MAX TEMP:  74; 6HR PCP:  1.03;

SPENCER        CLOUDY    68  67  96 S10       29.95F
6HR MIN TEMP:  67; 6HR MAX TEMP:  69; 6HR PCP:  0.01;

STORM LAKE *   CLOUDY    68  66  94 S7        29.97S
$$

IAZ055>058-069>071-079>083-090>094-250700-
   SOUTHWEST IOWA

CITY           SKY/WX    TMP DP  RH WIND       PRES   REMARKS
ATLANTIC *     LGT RAIN  70  68  94 SE5       29.99S
AUDUBON *      DRIZZLE   66  64  94 CALM      29.99F
CLARINDA *       N/A     70  68  94 MISG      29.99F
COUNCIL BLFS * LGT RAIN  68  68 100 S5        29.96S
CRESTON *      LGT RAIN  68  68 100 SE7       30.02F
HARLAN  *      CLOUDY    68  68 100 SE8       30.00F
LAMONI         LGT RAIN  69  68  96 E7        30.01F
6HR MIN TEMP:  69; 6HR MAX TEMP:  81; 6HR PCP:  0.12;

RED OAK *      LGT RAIN  68  68 100 SE9       29.97F
SHENANDOAH *   LGT RAIN  68  68 100 E12       29.94F
$$

IAZ047>049-059>061-072>074-084-250700-
   CENTRAL IOWA

CITY           SKY/WX    TMP DP  RH WIND       PRES   REMARKS
AMES           CLOUDY    68  68 100 SE6       30.01S
6HR MIN TEMP:  68; 6HR MAX TEMP:  79; 6HR PCP:  0.33;

ANKENY *         N/A    N/A N/A N/A MISG        N/A
BOONE *          N/A     68  68 100 SE9       30.00S
CHARITON *     HVY RAIN  70  68  94 SW6       30.03F
DES MOINES     LGT RAIN  70  68  93 SE8       30.00S
6HR MIN TEMP:  69; 6HR MAX TEMP:  83; 6HR PCP:  1.50;

GRINNELL*      LGT RAIN  69  67  94 W3        30.04S
KNOXVILLE *    CLOUDY    70  68  94 NW3       30.01F
MARSHALLTOWN   LGT RAIN  69  69 100 SE5       30.01F
6HR MIN TEMP:  69; 6HR MAX TEMP:  75; 6HR PCP:  0.35;

NEWTON *       CLOUDY    68  68 100 CALM      30.03S FOG
PELLA *        CLOUDY    69  67  93 N5        30.03F
PERRY *        MOCLDY    68  68 100 SE6       30.00F
$$

IAZ004>006-015-016-023>025-035-036-250700-
   NORTH CENTRAL IOWA

CITY           SKY/WX    TMP DP  RH WIND       PRES   REMARKS
ALGONA *       PTCLDY    68  66  94 S12       29.98R
CLARION *      CLOUDY    68  68 100 SE12      29.98F
ESTHERVILLE    CLOUDY    66  66 100 S13       29.95S
6HR MIN TEMP:  66; 6HR MAX TEMP:  69; 6HR PCP:  0.16;

FORT DODGE *   CLOUDY    66  64  94 SE10      29.98F
MASON CITY     CLOUDY    68  67  96 S9        30.00  FOG
6HR MIN TEMP:  68; 6HR MAX TEMP:  76; 6HR PCP:  0.12;

FOREST CITY *    N/A     66  66 100 SE12      29.97F
WEBSTER CITY * LGT RAIN  68  68 100 S7        29.98S
IOWA FALLS *   RAIN      67  65  94 E3        30.02F
$$

IAZ007>011-017>019-026>030-037>042-050>054-066-250700-
   NORTHEAST IOWA

CITY           SKY/WX    TMP DP  RH WIND       PRES   REMARKS
CEDAR RAPIDS   CLOUDY    70  69  97 SE8       30.03S
6HR MIN TEMP:  69; 6HR MAX TEMP:  75;

CHARLES CITY * CLOUDY    70  68  94 SE10      30.02F FOG
CLINTON *      CLOUDY    67  65  93 E10       30.07F
DECORAH *      CLOUDY    66  66 100 SE9G21    30.03F
DUBUQUE        CLOUDY    66  63  90 SE12      30.08S
6HR MIN TEMP:  65; 6HR MAX TEMP:  68;

MONTICELLO *   PTCLDY    68  66  94 SE10      30.05S
OELWEIN *      CLOUDY    68  66  94 SW8       30.06R FOG
WATERLOO       CLOUDY    69  66  90 E6        30.01F FOG
6HR MIN TEMP:  68; 6HR MAX TEMP:  75;

$$

IAZ064-065-067-068-078-250700-
   EAST CENTRAL IOWA

CITY           SKY/WX    TMP DP  RH WIND       PRES   REMARKS
DAVENPORT      CLOUDY    68  65  90 E7        30.06S
6HR MIN TEMP:  68; 6HR MAX TEMP:  74;

IOWA CITY      PTCLDY    71  67  87 E5        30.04F
6HR MIN TEMP:  70; 6HR MAX TEMP:  79;

MT. PLEASANT * PTCLDY    73  68  84 SE7       30.03S
MUSCATINE *    CLOUDY    72  66  83 CALM      30.04S
QUAD CITIES    CLEAR     69  65  86 E7        30.05S
6HR MIN TEMP:  69; 6HR MAX TEMP:  75;

$$

IAZ062-063-075>077-085>089-095>099-250700-
   SOUTHEAST IOWA

CITY           SKY/WX    TMP DP  RH WIND       PRES   REMARKS
BURLINGTON     CLEAR     68  68 100 SE5       30.04S
6HR MIN TEMP:  68; 6HR MAX TEMP:  80;

FAIRFIELD *    MOCLDY    72  64  78 SE7       30.02R
FORT MADISON * CLOUDY    72  66  83 SE7       30.04F
KEOKUK *       CLOUDY    70  66  88 SE7       30.02F
OSKALOOSA *    CLOUDY    73  65  75 N6        30.02S
CENTERVILLE *  MOCLDY    73  68  83 CALM      30.04S
OTTUMWA        CLOUDY    75  64  68 SE7       30.01S
6HR MIN TEMP:  74; 6HR MAX TEMP:  78;

WASHINGTON *     N/A    N/A N/A N/A MISG        N/A
$$

ABBREVIATIONS USED IN REMARKS
   TC - TEMPERATURES IN CELSIUS
  WCI - WIND CHILL INDEX
   HX - HEAT INDEX
  VSB - VISIBILITY
$$




USA.gov is the U.S. government's official web portal to all federal, state and local government web resources and services.